Weather History for Lima, OH

Change the Weather History Date:

Tuesday, February 5, 2013

  Actual Average (KFDY) Record (KFDY)
Temperature  
Mean Temperature 22 °F -  
Max Temperature 32 °F 30 °F 57 °F (2008)
Min Temperature 12 °F 17 °F -9 °F (2009)
Degree Days  
Heating Degree Days 43    
Moisture  
Dew Point 21 °F    
Average Humidity 84    
Maximum Humidity 93    
Minimum Humidity 66    
Precipitation  
Precipitation 0.01 in - - ()
Sea Level Pressure  
Sea Level Pressure 29.91 in    
Wind  
Wind Speed 6 mph (WSW)    
Max Wind Speed 14 mph    
Max Gust Speed -    
Visibility 3 miles    
Events Fog , Snow    
Averages and records for this station are not official NWS values.
T = Trace of Precipitation, MM = Missing Value Source: NWS Daily Summary

Daily Weather History Graph

Daily Weather History Graph

Search for Another Location

Airport:

Trip Planner

Search our weather history database for the weather conditions in past years. The results will help you decide how hot, cold, wet, or windy it might be!

Date:

Astronomy

Feb. 05, 2013 Rise Set
Actual Time 7:41 AM EST 5:59 PM EST
Civil Twilight 7:13 AM EST 6:27 PM EST
Nautical Twilight 6:40 AM EST 7:00 PM EST
Astronomical Twilight 6:08 AM EST 7:32 PM EST
Moon 3:23 AM EST (2/5) 1:15 PM EST (2/5)
Length of Visible Light 11h 14m
Length of Day
10h 17m
Waning Crescent, 27% of the Moon is Illuminated
Feb 5
Waning Crescent
Feb 10
New
Feb 17
First Quarter
Feb 25
Full
Mar 4
Last Quarter

Hourly Weather History & Observations

Time (EST) Temp. Windchill Dew Point Humidity Pressure Visibility Wind Dir Wind Speed Gust Speed Precip Events Conditions
12:53 AM 23.0 °F 14.7 °F 19.9 °F 88% 29.91 in 4.0 mi North 6.9 mph - N/A   Overcast
1:53 AM 23.0 °F 14.7 °F 19.9 °F 88% 29.91 in 4.0 mi North 6.9 mph - N/A   Overcast
2:53 AM 23.0 °F 18.4 °F 19.9 °F 88% 29.93 in 3.0 mi North 3.5 mph - N/A   Overcast
3:53 AM 23.0 °F 13.9 °F 19.9 °F 88% 29.92 in 3.0 mi North 8.1 mph - N/A   Overcast
4:10 AM 23.0 °F 15.8 °F 19.4 °F 86% 29.88 in 2.5 mi North 5.8 mph - N/A   Overcast
4:53 AM 21.9 °F 17.2 °F 19.0 °F 89% 29.92 in 2.0 mi NNW 3.5 mph - N/A   Overcast
5:04 AM 21.2 °F 16.4 °F 19.4 °F 93% 29.88 in 2.0 mi North 3.5 mph - N/A   Overcast
5:53 AM 21.9 °F 14.5 °F 19.0 °F 89% 29.90 in 3.0 mi NNE 5.8 mph - N/A   Overcast
6:02 AM 21.2 °F 14.9 °F 19.4 °F 93% 29.87 in 3.0 mi North 4.6 mph - N/A   Overcast
7:30 AM 19.4 °F - 17.6 °F 93% 29.90 in 2.5 mi Calm Calm - N/A   Scattered Clouds
7:49 AM 17.6 °F - 15.8 °F 93% 29.90 in 0.8 mi Calm Calm - N/A   Clear
7:53 AM 18.0 °F - 15.1 °F 88% 29.94 in 0.5 mi Calm Calm - N/A Fog Light Freezing Fog
8:15 AM 15.8 °F - 12.2 °F 86% 29.89 in 1.0 mi Calm Calm - N/A   Mist
8:19 AM 15.8 °F - 12.2 °F 86% 29.89 in 0.5 mi Calm Calm - N/A Fog Light Freezing Fog
8:35 AM 12.2 °F 6.1 °F 10.4 °F 92% 29.91 in 0.2 mi West 3.5 mph - N/A Fog Light Freezing Fog
8:53 AM 16.0 °F 10.4 °F 12.9 °F 88% 29.96 in 0.2 mi WSW 3.5 mph - N/A Fog Light Freezing Fog
9:15 AM 17.6 °F - 15.8 °F 93% 29.92 in 0.2 mi Calm Calm - N/A Fog Light Freezing Fog
9:53 AM 21.0 °F - 19.0 °F 92% 29.96 in 1.5 mi Calm Calm - N/A   Mostly Cloudy
10:09 AM 23.0 °F 17.0 °F 19.4 °F 86% 29.92 in 1.8 mi WSW 4.6 mph - N/A   Overcast
10:16 AM 23.0 °F 18.4 °F 19.4 °F 86% 29.92 in 2.0 mi West 3.5 mph - N/A   Mostly Cloudy
10:46 AM 23.0 °F 17.0 °F 19.4 °F 86% 29.92 in 3.0 mi South 4.6 mph - N/A   Overcast
10:53 AM 23.0 °F 17.0 °F 19.0 °F 85% 29.96 in 4.0 mi South 4.6 mph - N/A   Mostly Cloudy
11:05 AM 23.0 °F 17.0 °F 17.6 °F 80% 29.91 in 5.0 mi South 4.6 mph - N/A   Haze
11:53 AM 24.1 °F 16.0 °F 19.0 °F 81% 29.94 in 4.0 mi South 6.9 mph - N/A   Haze
12:53 PM 27.0 °F 18.7 °F 19.0 °F 72% 29.90 in 6.0 mi South 8.1 mph - N/A   Haze
1:53 PM 28.0 °F 18.6 °F 18.0 °F 66% 29.89 in 8.0 mi SW 10.4 mph - N/A   Scattered Clouds
2:53 PM 28.0 °F 20.8 °F 18.0 °F 66% 29.87 in 7.0 mi SSW 6.9 mph - N/A   Partly Cloudy
3:53 PM 28.9 °F 21.1 °F 19.0 °F 67% 29.86 in 6.0 mi South 8.1 mph - N/A   Haze
4:53 PM 30.0 °F 21.7 °F 19.9 °F 66% 29.85 in 6.0 mi South 9.2 mph - N/A   Haze
5:53 PM 30.0 °F 22.4 °F 19.9 °F 66% 29.87 in 7.0 mi SSW 8.1 mph - N/A   Overcast
6:12 PM 30.2 °F 21.3 °F 21.2 °F 69% 29.85 in 2.0 mi SW 10.4 mph - 0.00 in Snow Light Snow
6:19 PM 28.4 °F 19.7 °F 21.2 °F 74% 29.85 in 1.2 mi SW 9.2 mph - 0.00 in Snow Light Snow
6:53 PM 28.9 °F 21.9 °F 25.0 °F 85% 29.90 in 1.0 mi SW 6.9 mph - 0.01 in Snow Light Snow
7:23 PM 28.4 °F 20.4 °F 24.8 °F 86% 29.87 in 3.0 mi SW 8.1 mph - 0.00 in   Overcast
7:26 PM 28.4 °F 21.2 °F 24.8 °F 86% 29.87 in 2.5 mi SW 6.9 mph - 0.00 in   Overcast
7:39 PM 28.4 °F 20.4 °F 24.8 °F 86% 29.88 in 2.0 mi WSW 8.1 mph - 0.00 in Snow Light Snow
7:53 PM 28.9 °F 21.1 °F 25.0 °F 85% 29.92 in 3.0 mi SW 8.1 mph - 0.00 in   Overcast
8:06 PM 30.2 °F 22.6 °F 26.6 °F 86% 29.89 in 4.0 mi WSW 8.1 mph - N/A   Overcast
8:46 PM 30.2 °F 21.3 °F 26.6 °F 86% 29.89 in 4.0 mi WSW 10.4 mph - N/A   Overcast
8:53 PM 30.0 °F 21.7 °F 26.1 °F 85% 29.94 in 4.0 mi WSW 9.2 mph - N/A   Overcast
9:51 PM 30.2 °F 19.8 °F 26.6 °F 86% 29.92 in 3.0 mi West 13.8 mph - N/A   Overcast
9:53 PM 30.9 °F 22.2 °F 27.0 °F 85% 29.96 in 3.0 mi West 10.4 mph - N/A   Overcast
10:02 PM 30.2 °F 20.2 °F 26.6 °F 86% 29.93 in 4.0 mi West 12.7 mph - N/A   Overcast
10:33 PM 30.2 °F 20.2 °F 26.6 °F 86% 29.94 in 4.0 mi West 12.7 mph - N/A   Overcast
10:53 PM 32.0 °F 22.5 °F 26.1 °F 79% 29.98 in 5.0 mi WNW 12.7 mph - N/A   Haze
11:42 PM 30.2 °F 19.8 °F 26.6 °F 86% 29.96 in 6.0 mi WNW 13.8 mph - N/A   Haze
11:53 PM 30.9 °F 21.2 °F 26.1 °F 82% 30.00 in 5.0 mi West 12.7 mph - N/A   Haze